Other Public Products
Issued by NWS Grand Forks, ND

Home | Current Version | Previous Version | Graphics & Text | Print | Product List | Glossary On
Versions: 1 2 3 4 5 6 7 8 9 10 11 12 13 14 15 16 17 18 19 20 21 22 23 24 25 26 27 28 29 30 31 32 33 34 35 36 37 38 39 40 41 42 43 44 45 46 47 48 49 50
000
FPUS83 KFGF 230610
OPUFGF
PRAIRIE TO PINES WEATHER ROUNDUP
NATIONAL WEATHER SERVICE EASTERN NORTH DAKOTA/GRAND FORKS ND
100 AM CDT WED AUG 23 2017

 **SATELLITE DATA USED TO AUGMENT SKY COVER AT AUTOMATED STATIONS**
 *****  WEATHER ACROSS EASTERN NORTH DAKOTA  *****

CITY           SKY/WX    TMP DP  RH WIND       PRES   REMARKS
GRAND FORKS    FAIR      52  48  86 W6        30.09R
6HR MIN TEMP:  51; 6HR MAX TEMP:  73;

GRAND FORKS AF FAIR      47  44  88 NW5       30.09S
GRAND CITY NWS NOT AVBL
BUXTON         NOT AVBL
DEVILS LAKE    FAIR      54  46  74 CALM      30.11S
6HR MIN TEMP:  51; 6HR MAX TEMP:  72;

FARGO          FAIR      51  46  83 CALM      30.09R
6HR MIN TEMP:  50; 6HR MAX TEMP:  74;

WAHPETON ARPT  FAIR      50  45  81 CALM      30.10F
$$

 *****  WEATHER ACROSS CENTRAL AND WESTERN NORTH DAKOTA  *****

CITY           SKY/WX    TMP DP  RH WIND       PRES   REMARKS
JAMESTOWN      FAIR      52  47  83 CALM      30.11F
6HR MIN TEMP:  50; 6HR MAX TEMP:  70;

BISMARCK       FAIR      53  49  86 CALM      30.13S
6HR MIN TEMP:  52; 6HR MAX TEMP:  75;

MINOT          FAIR      59  44  57 SE3       30.08F
6HR MIN TEMP:  59; 6HR MAX TEMP:  76;

MINOT AFB      FAIR      52  44  72 CALM      30.06F
6HR MIN TEMP:  52; 6HR MAX TEMP:  76;

GARRISON         N/A     56  49  77 E3        30.10F
6HR MIN TEMP:  53; 6HR MAX TEMP:  76;

WILLISTON      FAIR      64  47  53 S6        30.07F
6HR MIN TEMP:  62; 6HR MAX TEMP:  80; 6HR PCP: TRACE;

DICKINSON      FAIR      53  42  66 S9        30.12F
6HR MIN TEMP:  53; 6HR MAX TEMP:  77;

HETTINGER      FAIR      57  44  62 E9        30.14F
6HR MIN TEMP:  57; 6HR MAX TEMP:  81;

$$

 *****  OTHER OBSERVATIONS NORTHEAST NORTH DAKOTA  *****

CITY           SKY/WX    TMP DP  RH WIND       PRES   REMARKS
WALHALLA       FAIR      50  50 100 CALM      30.09F
LANGDON        FAIR      46  46 100 SE5       30.11S
CAVALIER       FAIR      50  48  93 CALM      30.09S
GRAFTON        FAIR      52  52 100 CALM      30.11S
CANDO          FAIR      48  48 100 CALM      30.12S
FORT TOTTEN      N/A     55  48  77 CALM      29.95S
ROLLA          MOCLDY    46  46 100 CALM      30.11S
RUGBY          FAIR      54  48  82 SE6       30.08F
 ***** THE ABOVE OBSERVATIONS ARE NON NWS ARE NOT QUALITY
        CONTROLLED AND MAY MIS-REPORT RAIN FOR SNOW...
$$

 *****  OTHER OBSERVATIONS SOUTHEAST NORTH DAKOTA *****

CITY           SKY/WX    TMP DP  RH WIND       PRES   REMARKS
COOPERSTOWN    FAIR      52  48  87 CALM      30.11F
VALLEY CITY      N/A     48  48 100 CALM      30.12F
OAKES          NOT AVBL
GWINNER        CLEAR     52  50  93 CALM      30.11S
SHEYENNE NWR     N/A     52  47  84 NW2       29.95
BUFFALO        NOT AVBL
WYNDMERE       NOT AVBL
 ***** THE ABOVE OBSERVATIONS ARE NON NWS ARE NOT QUALITY
       CONTROLLED AND MAY MIS-REPORT RAIN FOR SNOW...
$$

  *****  WEATHER ACROSS NORTHERN MINNESOTA  *****

CITY           SKY/WX    TMP DP  RH WIND       PRES   REMARKS
FLAG ISLAND    FAIR      59  50  72 N5        30.04S
WARROAD        FAIR      52  48  87 NW5       30.07S
ROSEAU         FAIR      54  48  82 NW3       30.07S
HALLOCK        FAIR      48  46  93 CALM      30.08S
THF RVR FALLS  FAIR      52  48  86 NW6       30.09S
6HR MIN TEMP:  51; 6HR MAX TEMP:  69;

HALSTAD        NOT AVBL
FOSSTON        FAIR      45  41  87 CALM      30.09S
BAUDETTE       MOCLDY    51  49  92 W5        30.05R
6HR MIN TEMP:  51; 6HR MAX TEMP:  64;

WASKISH        FAIR      55  52  88 NW6       30.06S
CROOKSTON      FAIR      48  45  87 CALM      30.09S
$$
  *****  WEATHER ACROSS CENTRAL AND WEST MINNESOTA  *****

CITY           SKY/WX    TMP DP  RH WIND       PRES   REMARKS
BEMIDJI        FAIR      50  46  87 W5        30.06S
PARK RAPIDS    FAIR      51  47  86 NW7       30.07S
6HR MIN TEMP:  50; 6HR MAX TEMP:  70;

WADENA         FAIR      54  46  76 NW3       30.08S
DETROIT LAKES  FAIR      55  46  71 CALM      30.11S
MOORHEAD       FAIR      55  46  71 CALM      30.10S
FERGUS FALLS   FAIR      54  50  87 CALM      30.10S
ELBOW LAKE     FAIR      53  49  84 CALM      30.11S
MORRIS MN      FAIR      54  48  82 NW5       30.10S
STAPLES        FAIR      48  45  87 W3        30.08S
WHEATON        FAIR      55  48  76 CALM      30.12S
$$
  *****  WEATHER ELSEWHERE ACROSS MINNESOTA  *****

CITY           SKY/WX    TMP DP  RH WIND       PRES   REMARKS
DULUTH         FAIR      53  51  93 NW7       30.00S
6HR MIN TEMP:  53; 6HR MAX TEMP:  63;

INTRNTL FALLS  FAIR      48  46  93 CALM      30.02S
6HR MIN TEMP:  47; 6HR MAX TEMP:  63;

ELY            FAIR      52  50  93 NW5       30.00R
CLOQUET        FAIR      54  48  82 W5        30.02S
BRAINERD       FAIR      54  49  83 CALM      30.06S
6HR MIN TEMP:  54; 6HR MAX TEMP:  70;

HIBBING        MOCLDY    51  48  89 NW5       30.02S
6HR MIN TEMP:  50; 6HR MAX TEMP:  59;

ALEXANDRIA     FAIR      56  50  80 W5        30.11S
6HR MIN TEMP:  55; 6HR MAX TEMP:  69;

SAINT CLOUD    FAIR      55  49  80 NW7       30.07R
6HR MIN TEMP:  55; 6HR MAX TEMP:  71;

MINNEAPOLIS    FAIR      61  48  62 W7        30.06R
6HR MIN TEMP:  61; 6HR MAX TEMP:  71;

$$

  *****  WEATHER ACROSS SOUTH DAKOTA  *****

CITY           SKY/WX    TMP DP  RH WIND       PRES   REMARKS
SIOUX FALLS    FAIR      56  54  93 CALM      30.15F
6HR MIN TEMP:  55; 6HR MAX TEMP:  73;

BROOKINGS      FAIR      56  52  86 E3        30.15F
WATERTOWN      FAIR      54  50  86 CALM      30.14S
6HR MIN TEMP:  52; 6HR MAX TEMP:  70;

HURON          FAIR      54  53  97 CALM      30.14S
6HR MIN TEMP:  53; 6HR MAX TEMP:  75;

SISSETON         N/A     52  47  83 W3        30.10S
ABERDEEN       FAIR      49  48  97 CALM      30.13S
6HR MIN TEMP:  49; 6HR MAX TEMP:  76;

MITCHELL       FAIR      55  51  86 VRB3      30.15S
PIERRE         FAIR      58  49  72 E7        30.11F
6HR MIN TEMP:  57; 6HR MAX TEMP:  78;

MOBRIDGE       FAIR      57  48  72 S7        30.11F
RAPID CITY     FAIR      61  46  57 SE6       30.08F
6HR MIN TEMP:  61; 6HR MAX TEMP:  83;

$$

  *****  SOME WEATHER IN NEARBY STATES *****

CITY           SKY/WX    TMP DP  RH WIND       PRES   REMARKS
GLASGOW MT     FAIR      66  36  32 E14       30.02F
6HR MIN TEMP:  66; 6HR MAX TEMP:  84;

GREAT FALLS MT FAIR      68  32  26 E6        30.02F
6HR MIN TEMP:  65; 6HR MAX TEMP:  88;

CHEYENNE WY    FAIR      58  53  84 W6        30.25F
6HR MIN TEMP:  57; 6HR MAX TEMP:  76;

SCOTTSBLUFF NE FAIR      63  52  67 SE14      30.15F
6HR MIN TEMP:  63; 6HR MAX TEMP:  84;

OMAHA NE       FAIR      61  54  77 CALM      30.18R
6HR MIN TEMP:  58; 6HR MAX TEMP:  75;

DES MOINES IA  FAIR      60  55  83 CALM      30.14R
6HR MIN TEMP:  59; 6HR MAX TEMP:  74;

DAVENPORT IA   FAIR      55  52  89 W6        30.10R
6HR MIN TEMP:  55; 6HR MAX TEMP:  70;

CHICAGO IL     FAIR      64  51  62 W8        30.01S
6HR MIN TEMP:  64; 6HR MAX TEMP:  76;

EAU CLAIRE WI  FAIR      56  49  77 W5        30.02R
6HR MIN TEMP:  56; 6HR MAX TEMP:  70;

LA CROSSE WI   NOT AVBL
$$

  *****  SOME NATIONAL WEATHER *****

CITY           SKY/WX    TMP DP  RH WIND       PRES   REMARKS
LA GUARDIA NY  MOCLDY    75  73  93 SW10      29.76S
6HR MIN TEMP:  74; 6HR MAX TEMP:  85; 6HR PCP:  0.25;

RALEIGH NC     FAIR      78  73  84 SW8       29.92F



USA.gov is the U.S. government's official web portal to all federal, state and local government web resources and services.